Location: Dommiers
(49.3276°N, 3.2136°E)
Time: 10:19:29
(UTC+00:00)

Daily predictions for brighter satellites

Satellite Brightness Start Highest point End
(mag) Time Altitude Azimuth Time Altitude Azimuth Time Altitude Azimuth
Cosmos 1975 Rocket 3.0 19:11:05 10° N 19:15:27 84° E 19:19:45 10° S
Okean-O 3.6 19:12:25 10° SE 19:16:14 30° ENE 19:20:04 10° N
ADEOS Rocket 4.4 19:12:44 10° SSW 19:17:45 36° W 19:22:54 10° NNW
Cosmos 1953 3.5 19:14:14 10° SSW 19:17:55 46° WNW 19:21:39 10° N
Cosmos 2263 Rocket 4.4 19:16:14 10° N 19:18:15 12° NNE 19:20:16 10° NE
CZ-4B R/B 3.3 19:12:37 10° SSE 19:18:16 84° ENE 19:23:51 10° NNW
Nadezhda 3 Rocket 4.3 19:16:49 10° SSE 19:22:33 43° E 19:28:22 10° NNE
Cosmos 1821 Rocket 4.0 19:16:45 10° N 19:22:57 72° E 19:29:01 10° SSE
Genesis I 3.9 19:19:59 10° NNW 19:23:24 36° NE 19:26:47 10° ESE
Cosmos 2218 Rocket 4.4 19:17:05 10° NNW 19:23:28 72° W 19:29:46 10° S
SL-27 R/B 2.0 19:20:47 10° NNW 19:23:42 78° WSW 19:26:33 10° SSE
USA 186 1.6 19:21:42 10° SSE 19:24:44 89° W 19:27:45 10° NNW
Cosmos 1825 4.4 19:21:55 10° NNW 19:24:50 25° W 19:27:43 10° SSW
BREEZE-M R/B 1.7 19:22:17 10° W 19:25:05 86° N 19:27:31 10° E
SPOT 1/Viking Rocket 3.9 19:21:39 10° S 19:26:51 74° WSW 19:32:06 10° NNW
USA 267 3.3 19:20:51 10° ENE 19:27:27 83° SE 19:34:01 10° SW
Okean O Rocket 1.6 19:26:34 10° SSE 19:30:54 73° ENE 19:35:16 10° N
Feng Yun 1-1 Rocket 4.4 19:26:17 10° SSE 19:31:51 88° WSW 19:37:37 10° NNW
Cosmos 1486 Rocket 4.0 19:29:23 10° NNW 19:34:38 84° ENE 19:39:50 10° SSE
Cosmos 1782 Rocket 4.3 19:30:27 10° SSW 19:34:46 57° WNW 19:39:08 10° N
CZ-4 R/B 2.6 19:32:17 10° S 19:36:01 42° W 19:39:43 10° NNW
Cosmos 1536 Rocket 4.0 19:37:14 10° N 19:41:30 45° ENE 19:45:45 10° SSE
SJ 16-02 3.7 19:39:09 10° NW 19:42:34 23° W 19:45:58 10° SSW
Resurs 01 Rocket 1.7 19:41:15 10° S 19:45:40 80° WSW 19:50:07 10° NNW
DELTA 2 DEB (DPAF) 4.0 19:41:46 10° NNE 19:46:03 86° ESE 19:50:16 10° SSW
CENTAUR R/B 4.1 19:41:48 10° NW 19:48:46 37° NNE 19:56:49 10° E
NOSS 3-1 (A) 3.1 19:46:31 10° SSW 19:51:22 62° SE 19:57:16 10° NE
ERS-1 Rocket 3.9 19:51:26 14° ESE 19:55:00 31° ENE 19:59:24 10° N
Tiangong 0.0 19:55:58 10° S 19:57:17 13° SSE 19:57:17 13° SSE
Cosmos 1934 Rocket 4.1 19:54:17 10° N 20:00:24 62° ENE 20:06:25 11° SSE
USA 229 DEB 4.1 19:55:12 10° S 20:00:30 32° ESE 20:06:15 10° NE
USA 229 4.1 19:55:19 10° S 20:00:37 32° ESE 20:06:19 10° NE
Cosmos 2151 Rocket 3.6 19:58:21 10° S 20:02:41 63° E 20:07:05 10° NNE
USA 234 3.7 19:58:35 12° SE 20:04:38 54° SW 20:11:02 10° WNW
USA 281 3.3 19:59:09 10° SSE 20:05:43 86° WSW 20:12:22 10° NNW
ATLAS CENTAUR R/B 3.0 20:04:36 10° NNW 20:07:31 21° NE 20:09:58 13° E
Cosmos 2227 Rocket 3.1 20:03:23 10° NNW 20:08:38 36° NE 20:12:21 18° ESE
NOSS 3-1 (C) 3.9 20:06:55 10° WSW 20:11:56 57° NW 20:18:04 10° NE
Iridium 2 3.0 20:09:54 10° N 20:12:50 61° E 20:14:17 26° SSE
SL-4 R/B 1.8 20:12:18 10° WNW 20:15:56 69° NNE 20:17:57 23° E
Cosmos 1892 Rocket 4.5 20:12:31 10° N 20:16:24 31° ENE 20:18:10 23° ESE
Cosmos 371 Rocket 3.5 20:12:24 10° NNW 20:17:12 71° WSW 20:21:08 15° SSE
Landsat 4 3.8 20:17:01 26° SE 20:18:39 50° ENE 20:22:05 10° N
MetOp-B 4.1 20:15:38 16° SSE 20:19:59 76° ENE 20:25:22 10° NNW
Cosmos 1697 Rocket 3.7 20:18:57 21° SE 20:20:34 24° ESE 20:25:00 10° NE
Cosmos 304 Rocket 3.8 20:16:15 10° NNW 20:21:03 80° WSW 20:24:31 18° SSE
Cosmos 1777 Rocket 4.1 20:16:21 10° NNW 20:21:39 78° WSW 20:25:46 17° SSE
COSMOS 2455 3.0 20:18:09 10° NNW 20:24:11 65° NE 20:27:59 23° SE
Alouette 2 Rocket 4.4 20:16:34 10° NNW 20:24:22 86° ENE 20:28:13 18° SSE
Okean 2 Rocket 3.1 20:20:14 10° S 20:24:45 85° W 20:29:16 10° N
ATLAS 3B R/B 3.0 20:18:07 10° SW 20:25:17 82° NW 20:32:59 10° NE
SWARM A 4.4 20:26:02 10° N 20:29:35 61° E 20:31:01 32° SSE
SPOT 5 3.0 20:26:04 18° SSE 20:30:11 87° ENE 20:35:26 10° NNW
NOSS 8 (E) 4.4 20:27:40 10° NW 20:30:43 67° NE 20:32:00 36° ESE
IRS-1A Rocket 4.3 20:28:48 18° SSE 20:33:17 84° ENE 20:39:10 10° NNW
Cosmos 405 Rocket 3.4 20:33:27 31° E 20:33:39 31° E 20:36:58 10° NNE
CZ-4C R/B 3.1 20:30:24 10° NW 20:37:13 64° NE 20:42:37 23° ESE
Cosmos 2297 Rocket 2.2 20:31:34 10° NNW 20:37:15 90° NE 20:40:35 26° SSE
BlueWalker 3 1.8 20:34:15 10° SW 20:38:02 66° SSE 20:40:36 19° ENE
Cosmos 1535 Rocket 4.5 20:32:03 10° N 20:38:29 84° E 20:43:11 19° S
Dummy Sat-01 4.5 20:36:50 30° S 20:38:31 72° E 20:42:13 10° N
Spot 2 Rocket 3.7 20:36:25 28° SE 20:38:56 56° ENE 20:43:52 10° N
Terra 1.8 20:40:08 30° SE 20:42:20 64° ENE 20:47:02 10° N
Cosmos 1656 3.5 20:37:54 10° SSW 20:43:28 79° ESE 20:49:00 10° NNE
Cosmos 1455 Rocket 3.4 20:46:46 37° SE 20:47:51 45° E 20:52:03 10° NNE
Okean 1 Rocket 3.2 20:44:00 12° SSW 20:48:05 79° W 20:52:35 10° N
Sich 1 Rocket 4.5 20:44:14 10° SSW 20:48:31 49° WNW 20:52:52 10° N
ATLAS 5 CENTAUR R/B 3.4 20:45:56 10° W 20:48:56 26° NNW 20:52:20 10° NNE
Iridium 4 Rocket 3.8 20:44:02 13° S 20:49:03 84° W 20:54:56 10° N
USA 245 3.7 20:46:54 27° SSE 20:49:43 88° ENE 20:54:03 10° NNW
Cosmos 332 Rocket 3.7 20:44:51 10° NNW 20:49:45 89° ENE 20:51:53 34° SSE
Cosmos 2219 3.8 20:46:44 10° NNW 20:52:09 43° NE 20:54:33 28° ESE
Okean-O 4.0 20:48:36 10° SSW 20:52:34 34° W 20:56:36 10° NNW
Helios 1B 4.5 20:53:58 10° NNE 20:58:15 63° ESE 20:59:33 42° SSE
Ariane Rocket 2.9 20:56:30 34° SSE 20:58:44 82° ENE 21:03:49 10° NNW
Cosmos 1437 Rocket 2.7 20:55:42 10° N 20:59:38 73° ENE 21:00:22 55° SE
Cosmos 1763 Rocket 3.4 20:57:45 26° S 21:00:29 62° ESE 21:05:35 10° NNE
Cosmos 2263 Rocket 3.1 20:58:44 10° NNW 21:03:56 37° NE 21:06:06 27° E
Cosmos 44 3.4 20:59:54 10° SSW 21:05:19 82° SE 21:10:39 10° NE
Okean O Rocket 4.3 21:05:25 10° WSW 21:07:42 14° W 21:10:00 10° WNW
Cosmos 990 Rocket 4.0 21:04:48 10° NNW 21:09:59 77° WSW 21:11:52 40° S
USA 267 4.0 21:03:56 10° ENE 21:10:16 53° NNW 21:16:35 10° W
Cosmos 2082 4.5 21:05:08 10° NNW 21:10:28 40° NE 21:12:29 30° E
ARGOS Delta rocket 4.1 21:08:36 40° SSE 21:10:34 73° ENE 21:16:03 10° N
Cosmos 2173 Rocket 4.3 21:08:42 10° N 21:14:56 52° ENE 21:17:01 38° SE
NOSS 3-2 (A) 4.5 21:08:15 10° NW 21:15:08 52° NE 21:19:58 25° ESE
Cosmos 1605 Rocket 4.3 21:08:51 10° NNW 21:15:11 66° W 21:19:09 24° S
Aureole 1 Rocket 2.6 21:13:24 10° NNW 21:15:56 60° NNW 21:15:56 60° NNW
Meteor 2-3 Rocket 4.3 21:12:58 10° N 21:18:20 41° ENE 21:19:41 36° ESE
Cosmos 540 Rocket 3.3 21:18:45 45° S 21:20:13 67° ESE 21:25:18 10° NNE
Cosmos 1153 Rocket 4.4 21:16:58 10° N 21:23:19 90° WNW 21:25:55 38° S
MOS 1 Rocket 2.9 21:25:22 68° SSE 21:25:54 84° ENE 21:30:18 10° NNW
Cosmos 2058 2.6 21:22:16 10° N 21:26:20 83° E 21:26:27 82° ESE
Cosmos 1626 Rocket 3.7 21:24:36 10° N 21:28:58 57° ENE 21:29:06 56° E
Cosmos 372 Rocket 4.0 21:25:54 10° NNW 21:31:09 68° ENE 21:32:09 54° ESE
Cosmos 468 Rocket 3.8 21:31:31 46° S 21:33:03 80° ESE 21:38:18 10° NNE
ERS-1 Rocket 3.9 21:31:22 26° SSW 21:33:38 41° W 21:38:23 10° NNW
Cosmos 1802 Rocket 4.2 21:31:17 10° N 21:37:27 56° ENE 21:38:59 45° ESE
SPOT 3 Rocket 4.0 21:35:46 36° SSW 21:37:35 54° W 21:42:41 10° NNW
CENTAUR R/B 3.3 21:32:32 10° NW 21:40:40 80° NE 21:44:48 38° SE
Cosmos 1869 4.4 21:43:56 34° NE 21:43:56 34° NE 21:46:25 10° NNE
Landsat 5 3.4 21:38:43 10° NNE 21:42:59 78° WNW 21:43:13 75° WSW
Cosmos 841 Rocket 3.8 21:43:35 47° E 21:43:35 47° E 21:47:59 10° NNE
Cosmos 2016 Rocket 4.2 21:38:45 10° N 21:44:44 53° ENE 21:45:55 46° ESE
ATLAS CENTAUR R/B 1.6 21:41:52 10° NW 21:45:04 57° WNW 21:45:04 57° WNW
Cosmos 1844 Rocket 4.4 21:43:44 10° N 21:48:07 23° NE 21:50:31 17° ENE
Intercosmos 25 3.4 21:43:41 10° N 21:48:13 78° NNW 21:48:13 78° NNW
Cosmos 1544 Rocket 3.6 21:49:27 67° NE 21:49:27 67° NE 21:53:21 10° NNE
USA 229 DEB 3.9 21:44:45 10° SW 21:50:56 66° NW 21:57:50 10° NE
USA 229 3.9 21:44:50 10° SW 21:51:02 67° NW 21:57:55 10° NE
Cosmos 1727 Rocket 4.1 21:49:08 36° SSW 21:51:54 76° W 21:58:12 10° N
Cosmos 2100 Rocket 4.0 21:46:07 10° N 21:52:31 86° W 21:54:16 51° S
Cosmos 2227 Rocket 2.8 21:47:24 10° NW 21:52:50 47° WSW 21:54:10 39° SSW
H-2A R/B 3.6 21:54:16 30° NE 21:54:16 30° NE 21:56:52 10° N
SL-4 R/B 3.7 21:51:19 10° WNW 21:52:47 21° W 21:52:47 21° W
Cosmos 1980 Rocket 2.2 21:55:14 60° ESE 21:55:14 60° ESE 22:00:45 10° NE
Cosmos 292 Rocket 3.8 21:51:57 10° NNW 21:56:42 68° WSW 21:56:52 68° SW
Cosmos 1000 Rocket 4.4 22:01:36 52° SSW 22:03:13 87° W 22:09:25 10° N
Cosmos 1937 Rocket 3.4 21:57:59 10° NNW 22:03:19 77° WSW 22:03:46 71° SSW
Cosmos 1697 Rocket 3.0 22:00:32 23° SW 22:04:02 65° WNW 22:09:43 10° NNE
Okean 1-7 Rocket 3.7 21:59:54 10° N 22:04:09 76° NNE 22:04:09 76° NNE
Cosmos 2123 Rocket 3.9 22:05:46 60° SE 22:06:45 71° E 22:13:04 10° NNE
COSMOS 2455 4.1 22:04:40 10° NW 22:09:41 28° WSW 22:11:08 25° SW
CZ-2C R/B 4.2 22:06:48 10° NNE 22:10:47 54° ENE 22:10:47 54° ENE
Cosmos 1602 Rocket 3.8 22:07:29 10° N 22:11:18 67° N 22:11:18 67° N
Cosmos 1758 Rocket 3.7 22:08:03 10° NNW 22:12:06 71° NW 22:12:06 71° NW
Cosmos 2228 3.5 22:14:51 55° N 22:14:51 55° N 22:18:11 10° N
Cosmos 1898 Rocket 4.1 22:10:56 10° NW 22:15:55 45° WSW 22:16:18 44° WSW
BlueWalker 3 3.4 22:12:40 10° W 22:15:07 34° WNW 22:15:07 34° WNW
ARIANE 5 R/B 2.8 22:17:17 69° N 22:17:17 69° N 22:21:18 10° NNW
ATLAS 3B R/B 4.5 22:10:29 10° W 22:17:08 35° NNW 22:24:08 10° NE
Terra 3.9 22:18:50 16° WSW 22:20:22 18° W 22:23:36 10° NW
Cosmos 2297 Rocket 4.3 22:17:08 10° WNW 22:20:29 16° W 22:22:24 14° WSW
CZ-4C R/B 3.6 22:18:55 10° NW 22:25:46 44° WSW 22:27:43 38° SSW
Cosmos 2227 4.4 22:21:32 10° NNW 22:27:12 58° ENE 22:27:45 55° E
Cosmos 2369 3.5 22:27:50 81° ESE 22:27:50 81° ESE 22:33:29 10° NNE
Lacrosse 4 Rocket 3.8 22:33:41 15° NE 22:33:41 15° NE 22:34:25 10° NE
Cosmos 1825 Rocket 4.2 22:26:36 10° N 22:30:02 51° NNE 22:30:02 51° NNE
NOSS 3-2 (C) 4.2 22:24:15 10° NW 22:31:27 68° NE 22:34:32 41° ESE
SL-08 R/B 4.4 22:25:24 10° N 22:31:48 85° W 22:32:34 70° S
H-2A R/B 4.5 22:30:04 10° NE 22:30:49 13° ENE 22:30:49 13° ENE
Meteor 2-8 Rocket 4.4 22:26:48 10° NNW 22:32:58 78° W 22:33:42 68° SSW
Cosmos 1725 Rocket 3.9 22:28:11 10° NNW 22:34:21 72° W 22:35:10 64° SW
Cosmos 2233 Rocket 3.8 22:28:34 10° N 22:34:47 81° E 22:35:19 74° SE
ALOS 2 3.7 22:35:57 38° NE 22:35:57 38° NE 22:39:19 10° N
Cosmos 2219 4.0 22:31:04 10° NW 22:36:14 38° WSW 22:36:27 37° WSW
Cosmos 2061 Rocket 3.9 22:34:47 10° N 22:41:16 83° W 22:42:00 71° SSW
Cosmos 2263 Rocket 2.8 22:42:39 10° NW 22:47:47 45° WSW 22:47:47 45° WSW
Cosmos 2360 Rocket 4.0 22:51:06 18° ENE 22:51:06 18° ENE 22:53:28 10° NE
Cosmos 1271 Rocket 4.5 22:47:04 10° N 22:49:07 30° N 22:49:07 30° N
SL-19 R/B 4.5 22:46:29 10° NNE 22:51:47 63° E 22:51:47 63° E
USA 267 4.2 22:46:28 10° ENE 22:52:40 47° N 22:58:51 10° WNW
Cosmos 2082 4.4 22:49:19 10° NW 22:54:20 41° W 22:54:20 41° W
Cosmos 2333 Rocket 3.9 23:03:47 20° ENE 23:03:47 20° ENE 23:06:26 10° NE
Lacrosse 5 4.2 23:05:57 14° ENE 23:05:57 14° ENE 23:06:44 10° ENE
Cosmos 2322 Rocket 3.5 23:03:59 29° ENE 23:03:59 29° ENE 23:07:25 10° NE
Cosmos 2219 Rocket 4.4 23:05:42 13° E 23:05:42 13° E 23:06:57 10° ENE
NOSS 3-2 (A) 4.2 22:59:02 10° NW 23:06:19 57° WSW 23:07:20 54° SSW
Spot 4 4.4 23:09:20 55° NW 23:09:20 55° NW 23:13:15 10° NNW
Meteor 2-19 Rocket 4.5 23:16:07 66° WSW 23:16:31 68° WNW 23:22:36 10° N
SL-16 R/B 2.5 23:22:57 59° ENE 23:22:57 59° ENE 23:27:44 10° NNE
Cosmos 1844 3.8 23:17:47 10° NNW 23:23:28 74° NE 23:23:28 74° NE
CENTAUR R/B 4.0 23:23:38 10° NW 23:31:07 36° WSW 23:31:56 35° SW
USA 238 DEB 3.9 23:23:57 10° NW 23:31:17 83° NE 23:32:58 59° SE
USA 238 3.9 23:24:03 10° NW 23:31:22 82° NE 23:33:05 58° SE
Cosmos 1125 Rocket 3.8 23:27:23 10° NNW 23:31:48 64° NNW 23:31:48 64° NNW
Cosmos 1844 Rocket 2.8 23:27:07 10° NNW 23:32:08 72° NW 23:32:08 72° NW
Cosmos 1980 Rocket 3.8 23:36:55 21° W 23:39:34 30° NW 23:44:32 10° NNE
Meteor 2-14 Rocket 4.3 23:41:04 82° E 23:41:04 82° E 23:47:11 10° NNE
Cosmos 2346 Rocket 4.4 23:42:06 75° W 23:42:15 75° W 23:48:33 10° N
Cosmos 1072 Rocket 4.4 23:35:57 10° N 23:42:23 89° W 23:42:32 86° S
Cosmos 2278 3.9 23:44:40 64° WNW 23:44:42 64° WNW 23:50:22 10° NNE
Timation 2 Rocket 3.9 23:41:23 10° NNW 23:48:03 87° ENE 23:48:19 83° ESE
